Location: Unspecified
(0.0000°N, 0.0000°E)
Time: 17:02:33

CUBESAT XI-V - Pass Details

Date: 11 December 2017
Orbit: 670 x 693 km, 97.9° (Epoch: 22 March)

Event Time Altitude Azimuth Distance (km) Brightness Sun altitude
Rises 04:29:05 0° 189° (S) 3,016 ? -19.3°
Reaches altitude 10° 04:31:35 10° 201° (SSW) 2,102 ? -18.7°
Maximum altitude 04:35:27 27° 258° (WSW) 1,289 ? -17.8°
Enters shadow 04:35:27 27° 258° (WSW) 1,289 ? -17.8°
